New Orleans, LA

11:05 PM CST on November 17, 2017 (GMT -0600)
New Orleans International

Weather History for KMSY - February, 2013

Change the Weather History Date:

Monday, February 25, 2013

  Actual Average Record
Temperature  
Mean Temperature 63 °F -  
Max Temperature 66 °F 67 °F 82 °F (1972)
Min Temperature 60 °F 46 °F 30 °F (1965)
Degree Days  
Heating Degree Days 2    
Growing Degree Days 13 (Base 50)    
Moisture  
Dew Point 60 °F    
Average Humidity 90    
Maximum Humidity 100    
Minimum Humidity 42    
Precipitation  
Precipitation 1.02 in - - ()
Sea Level Pressure  
Sea Level Pressure 29.64 in    
Wind  
Wind Speed 11 mph (East)    
Max Wind Speed 20 mph    
Max Gust Speed 28 mph    
Visibility 7 miles    
Events Fog , Rain , Thunderstorm    
Averages and records for this station are not official NWS values.
T = Trace of Precipitation, MM = Missing Value Source: NWS Daily Summary

Daily Weather History Graph

Daily Weather History Graph

Search for Another Location

Airport or City:

Trip Planner

Search our weather history database for the weather conditions in past years. The results will help you decide how hot, cold, wet, or windy it might be!

Date:

Astronomy

Feb. 25, 2013 Rise Set
Actual Time 6:30 AM CST 5:57 PM CST
Civil Twilight 6:06 AM CST 6:21 PM CST
Nautical Twilight 5:39 AM CST 6:49 PM CST
Astronomical Twilight 5:11 AM CST 7:17 PM CST
Moon 6:06 PM CST (2/25) 6:03 AM CST (2/25)
Length of Visible Light 12h 14m
Length of Day
11h 26m
Full, 100% of the Moon is Illuminated
Feb 25
Full
Feb 25
Full
Mar 4
Last Quarter
Mar 11
New
Mar 19
First Quarter

Hourly Weather History & Observations

Time (CST) Temp. Dew Point Humidity Pressure Visibility Wind Dir Wind Speed Gust Speed Precip Events Conditions
12:03 AM 62.6 °F 60.8 °F 94% 29.73 in 5.0 mi East 11.5 mph 19.6 mph 0.04 in Rain , Thunderstorm Light Thunderstorms and Rain
12:19 AM 62.6 °F 60.8 °F 94% 29.72 in 10.0 mi East 12.7 mph - 0.04 in Rain , Thunderstorm Light Thunderstorms and Rain
12:28 AM 62.6 °F 60.8 °F 94% 29.72 in 3.0 mi East 12.7 mph - 0.08 in Rain , Thunderstorm Thunderstorms and Rain
12:53 AM 62.1 °F 60.1 °F 93% 29.74 in 10.0 mi East 9.2 mph - 0.19 in Rain , Thunderstorm Light Thunderstorms and Rain
1:02 AM 62.6 °F 60.8 °F 94% 29.73 in 10.0 mi East 9.2 mph - 0.01 in   Overcast
1:18 AM 62.6 °F 60.8 °F 94% 29.72 in 10.0 mi ENE 8.1 mph - 0.01 in   Overcast
1:31 AM 60.8 °F 59.0 °F 94% 29.74 in 1.5 mi Variable 4.6 mph - 0.03 in Rain Rain
1:35 AM 60.8 °F 59.0 °F 94% 29.75 in 2.0 mi NW 6.9 mph - 0.27 in Rain Rain
1:49 AM 60.8 °F 59.0 °F 94% 29.74 in 7.0 mi North 4.6 mph - 0.36 in Rain Light Rain
1:53 AM 61.0 °F 59.0 °F 93% 29.75 in 7.0 mi NNE 8.1 mph - 0.36 in Rain Light Rain
2:09 AM 60.8 °F 59.0 °F 94% 29.72 in 4.0 mi NNE 15.0 mph - 0.03 in Rain Light Rain
2:35 AM 60.8 °F 59.0 °F 94% 29.70 in 5.0 mi NE 16.1 mph - 0.06 in Rain , Thunderstorm Light Thunderstorms and Rain
2:53 AM 60.1 °F 59.0 °F 96% 29.72 in 3.0 mi NE 10.4 mph - 0.20 in Rain , Thunderstorm Thunderstorms and Rain
3:20 AM 60.8 °F 59.0 °F 94% 29.69 in 6.0 mi ENE 11.5 mph - 0.05 in Rain Light Rain
3:53 AM 61.0 °F 59.0 °F 93% 29.69 in 10.0 mi East 13.8 mph - 0.06 in Rain Light Rain
4:40 AM 62.6 °F 59.0 °F 88% 29.69 in 6.0 mi East 9.2 mph - 0.01 in Rain Light Rain
4:49 AM 62.6 °F 60.8 °F 94% 29.71 in 7.0 mi Variable 6.9 mph - 0.03 in Rain Light Rain
4:53 AM 62.1 °F 60.1 °F 93% 29.72 in 8.0 mi NW 17.3 mph 25.3 mph 0.03 in Rain Light Rain
5:07 AM 62.6 °F 60.8 °F 94% 29.70 in 10.0 mi North 8.1 mph - 0.01 in Rain Light Rain
5:53 AM 62.1 °F 60.1 °F 93% 29.73 in 6.0 mi ENE 6.9 mph - 0.01 in Rain Light Rain
6:08 AM 62.6 °F 60.8 °F 94% 29.72 in 5.0 mi East 6.9 mph - 0.00 in Rain Light Rain
6:50 AM 62.6 °F 60.8 °F 94% 29.72 in 9.0 mi East 9.2 mph - 0.02 in Rain Light Rain
6:53 AM 62.1 °F 60.1 °F 93% 29.73 in 9.0 mi East 6.9 mph - 0.02 in Rain Light Rain
7:25 AM 62.6 °F 59.0 °F 88% 29.73 in 9.0 mi East 12.7 mph 20.7 mph 0.00 in   Light Drizzle
7:47 AM 62.6 °F 59.0 °F 88% 29.73 in 7.0 mi East 16.1 mph 21.9 mph 0.00 in   Light Drizzle
7:53 AM 62.1 °F 59.0 °F 90% 29.74 in 8.0 mi East 13.8 mph 21.9 mph 0.00 in   Light Drizzle
8:53 AM 63.0 °F 60.1 °F 90% 29.74 in 10.0 mi East 15.0 mph - 0.00 in   Overcast
9:47 AM 64.4 °F 60.8 °F 88% 29.73 in 10.0 mi ESE 15.0 mph 25.3 mph N/A   Overcast
9:53 AM 64.0 °F 61.0 °F 90% 29.74 in 10.0 mi East 13.8 mph 20.7 mph N/A   Overcast
10:00 AM 64.4 °F 60.8 °F 88% 29.73 in 10.0 mi East 13.8 mph 23.0 mph N/A   Overcast
10:14 AM 64.4 °F 60.8 °F 88% 29.72 in 10.0 mi East 12.7 mph 21.9 mph N/A   Overcast
10:53 AM 64.0 °F 61.0 °F 90% 29.73 in 5.0 mi East 11.5 mph - 0.00 in   Overcast
11:53 AM 64.0 °F 61.0 °F 90% 29.67 in 8.0 mi ENE 11.5 mph 20.7 mph N/A   Overcast
12:12 PM 62.6 °F 60.8 °F 94% 29.67 in 1.8 mi East 9.2 mph - 0.00 in   Light Drizzle
12:18 PM 62.6 °F 60.8 °F 94% 29.66 in 4.0 mi ESE 9.2 mph - 0.00 in   Overcast
12:53 PM 64.0 °F 61.0 °F 90% 29.65 in 9.0 mi ESE 10.4 mph - 0.00 in   Overcast
1:32 PM 64.4 °F 60.8 °F 88% 29.60 in 10.0 mi ESE 16.1 mph 23.0 mph 0.00 in Rain Light Rain
1:51 PM 64.4 °F 60.8 °F 88% 29.57 in 9.0 mi ESE 17.3 mph 27.6 mph 0.00 in Rain Light Rain
1:53 PM 64.9 °F 61.0 °F 87% 29.59 in 10.0 mi ESE 19.6 mph 27.6 mph 0.00 in Rain Light Rain
2:40 PM 64.4 °F 60.8 °F 88% 29.57 in 4.0 mi ESE 15.0 mph 20.7 mph 0.04 in Rain Light Rain
2:53 PM 64.9 °F 62.1 °F 90% 29.58 in 10.0 mi ESE 9.2 mph - 0.04 in   Overcast
3:00 PM 64.4 °F 62.6 °F 94% 29.56 in 10.0 mi ESE 9.2 mph - N/A   Overcast
3:30 PM 64.4 °F 60.8 °F 88% 29.54 in 8.0 mi ESE 11.5 mph 21.9 mph 0.00 in Rain , Thunderstorm Light Thunderstorms and Rain
3:53 PM 64.0 °F 62.1 °F 93% 29.54 in 10.0 mi South 10.4 mph 21.9 mph 0.00 in Rain , Thunderstorm Light Thunderstorms and Rain
4:00 PM 64.4 °F 62.6 °F 94% 29.54 in 10.0 mi SE 10.4 mph - 0.00 in Rain , Thunderstorm Light Thunderstorms and Rain
4:08 PM 64.4 °F 62.6 °F 94% 29.54 in 9.0 mi SE 9.2 mph - 0.00 in   Overcast
4:34 PM 64.4 °F 62.6 °F 94% 29.51 in 5.0 mi East 8.1 mph - 0.02 in Rain , Thunderstorm Light Thunderstorms and Rain
4:50 PM 64.4 °F 62.6 °F 94% 29.55 in 2.5 mi SSE 6.9 mph - 0.09 in Rain , Thunderstorm Thunderstorms and Rain
4:53 PM 64.0 °F 63.0 °F 96% 29.53 in 0.5 mi Variable 3.5 mph - 0.13 in Fog , Rain , Thunderstorm Heavy Thunderstorms and Rain
5:07 PM 64.4 °F 62.6 °F 94% 29.54 in 1.0 mi WNW 6.9 mph - 0.41 in Rain , Thunderstorm Thunderstorms and Rain
5:15 PM 64.4 °F 62.6 °F 94% 29.56 in 0.5 mi WNW 13.8 mph - 0.57 in Fog , Rain , Thunderstorm Heavy Thunderstorms and Rain
5:26 PM 64.4 °F 62.6 °F 94% 29.49 in 3.0 mi NE 6.9 mph - 0.84 in Rain , Thunderstorm Thunderstorms and Rain
5:33 PM 64.4 °F 64.4 °F 100% 29.50 in 5.0 mi East 8.1 mph - 0.86 in Rain , Thunderstorm Light Thunderstorms and Rain
5:46 PM 64.4 °F 62.6 °F 94% 29.48 in 10.0 mi ESE 10.4 mph - 0.86 in   Overcast
5:53 PM 64.9 °F 63.0 °F 93% 29.49 in 10.0 mi ESE 11.5 mph - 0.86 in   Overcast
6:53 PM 66.9 °F 64.0 °F 90% 29.50 in 10.0 mi South 12.7 mph - N/A   Overcast
7:21 PM 66.2 °F 64.4 °F 94% 29.50 in 10.0 mi SW 17.3 mph 24.2 mph N/A   Mostly Cloudy
7:47 PM 66.2 °F 62.6 °F 88% 29.51 in 10.0 mi SW 13.8 mph 21.9 mph N/A   Overcast
7:53 PM 66.0 °F 63.0 °F 90% 29.52 in 10.0 mi WSW 19.6 mph 26.5 mph N/A   Overcast
8:26 PM 66.2 °F 62.6 °F 88% 29.52 in 10.0 mi WSW 11.5 mph - N/A   Mostly Cloudy
8:53 PM 64.9 °F 59.0 °F 81% 29.53 in 10.0 mi WSW 10.4 mph - N/A   Mostly Cloudy
9:53 PM 63.0 °F 53.1 °F 70% 29.56 in 10.0 mi WSW 15.0 mph 20.7 mph N/A   Partly Cloudy
10:53 PM 61.0 °F 46.0 °F 58% 29.59 in 10.0 mi WSW 18.4 mph 24.2 mph N/A   Mostly Cloudy
11:53 PM 60.1 °F 43.0 °F 53% 29.60 in 10.0 mi WSW 16.1 mph 23.0 mph N/A   Mostly Cloudy